Location: Sevilla
(37.3933°N, 5.9839°W)
Time: 01:06:29
(UTC+02:00)

SR - Visible Passes

Search period start: 16 June 2024 00:00
Search period end: 26 June 2024 00:00
Orbit: 580 x 858 km, 66.7° (Epoch: 15 June)

Date Brightness Start Highest point End Pass type
(mag) Time Alt. Az. Time Alt. Az. Time Alt. Az.
16 Jun ? 22:58:11 10° NNW 23:02:26 79° ENE 23:05:21 20° SSE visible
17 Jun ? 23:48:27 10° WNW 23:51:36 20° WSW 23:53:52 14° SSW visible
18 Jun ? 22:55:22 10° NW 22:59:29 52° WSW 23:03:13 13° S visible
19 Jun ? 23:47:44 10° W 23:48:28 10° WSW 23:49:13 10° WSW visible
20 Jun ? 22:52:52 10° NW 22:56:27 27° WSW 23:00:07 10° SSW visible
22 Jun ? 22:51:03 10° WNW 22:53:19 14° WSW 22:55:38 10° SW visible
